Year,Month,Day,Hour,Minute,Value (Times are PST for temperature in C)
2014,10,19,00,00,14.70
2014,10,19,00,01,14.70
2014,10,19,00,02,14.70
2014,10,19,00,03,14.70
2014,10,19,00,04,14.70
2014,10,19,00,05,14.70
2014,10,19,00,06,14.70
2014,10,19,00,07,14.70
2014,10,19,00,08,14.70
2014,10,19,00,09,14.70
2014,10,19,00,10,14.70
2014,10,19,00,11,14.80
2014,10,19,00,12,14.80
2014,10,19,00,13,14.80
2014,10,19,00,14,14.80
2014,10,19,00,15,14.80
2014,10,19,00,16,14.80
2014,10,19,00,17,14.80
2014,10,19,00,18,14.80
2014,10,19,00,19,14.90
2014,10,19,00,20,14.90
2014,10,19,00,21,14.90
2014,10,19,00,22,14.90
2014,10,19,00,23,14.90
2014,10,19,00,24,14.90
2014,10,19,00,25,14.90
2014,10,19,00,26,14.90
2014,10,19,00,27,15.00
2014,10,19,00,28,15.00
2014,10,19,00,29,15.00
2014,10,19,00,30,15.00
2014,10,19,00,31,15.00
2014,10,19,00,32,15.00
2014,10,19,00,33,15.00
2014,10,19,00,34,15.00
2014,10,19,00,35,15.00
2014,10,19,00,36,15.00
2014,10,19,00,37,15.00
2014,10,19,00,38,15.00
2014,10,19,00,39,15.00
2014,10,19,00,40,15.00
2014,10,19,00,41,15.10
2014,10,19,00,42,15.00
2014,10,19,00,43,15.10
2014,10,19,00,44,15.10
2014,10,19,00,45,15.10
2014,10,19,00,46,15.10
2014,10,19,00,47,15.10
2014,10,19,00,48,15.10
2014,10,19,00,49,15.10
2014,10,19,00,50,15.10
2014,10,19,00,51,15.10
2014,10,19,00,52,15.10
2014,10,19,00,53,15.10
2014,10,19,00,54,15.10
2014,10,19,00,55,15.10
2014,10,19,00,56,15.10
2014,10,19,00,57,15.10
2014,10,19,00,58,15.10
2014,10,19,00,59,15.10
2014,10,19,01,00,15.10
2014,10,19,01,01,15.10
2014,10,19,01,02,15.10
2014,10,19,01,03,15.10
2014,10,19,01,04,15.10
2014,10,19,01,05,15.10
2014,10,19,01,06,15.10
2014,10,19,01,07,15.10
2014,10,19,01,08,15.10
2014,10,19,01,09,15.10
2014,10,19,01,10,15.10
2014,10,19,01,11,15.10
2014,10,19,01,12,15.10
2014,10,19,01,13,15.10
2014,10,19,01,14,15.10
2014,10,19,01,15,15.10
2014,10,19,01,16,15.10
2014,10,19,01,17,15.10
2014,10,19,01,18,15.10
2014,10,19,01,19,15.10
2014,10,19,01,20,15.10
2014,10,19,01,21,15.10
2014,10,19,01,22,15.10
2014,10,19,01,23,15.10
2014,10,19,01,24,15.10
2014,10,19,01,25,15.10
2014,10,19,01,26,15.10
2014,10,19,01,27,15.10
2014,10,19,01,28,15.10
2014,10,19,01,29,15.10
2014,10,19,01,30,15.10
2014,10,19,01,31,15.10
2014,10,19,01,32,15.10
2014,10,19,01,33,15.10
2014,10,19,01,34,15.10
2014,10,19,01,35,15.10
2014,10,19,01,36,15.10
2014,10,19,01,37,15.10
2014,10,19,01,38,15.10
2014,10,19,01,39,15.10
2014,10,19,01,40,15.10
2014,10,19,01,41,15.10
2014,10,19,01,42,15.10
2014,10,19,01,43,15.10
2014,10,19,01,44,15.10
2014,10,19,01,45,15.10
2014,10,19,01,46,15.10
2014,10,19,01,47,15.10
2014,10,19,01,48,15.10
2014,10,19,01,49,15.10
2014,10,19,01,50,15.10
2014,10,19,01,51,15.10
2014,10,19,01,52,15.10
2014,10,19,01,53,15.10
2014,10,19,01,54,15.10
2014,10,19,01,55,15.10
2014,10,19,01,56,15.10
2014,10,19,01,57,15.10
2014,10,19,01,58,15.10
2014,10,19,01,59,15.10
2014,10,19,02,00,15.10
2014,10,19,02,01,15.10
2014,10,19,02,02,15.10
2014,10,19,02,03,15.10
2014,10,19,02,04,15.10
2014,10,19,02,05,15.20
2014,10,19,02,06,15.10
2014,10,19,02,07,15.20
2014,10,19,02,08,15.20
2014,10,19,02,09,15.20
2014,10,19,02,10,15.20
2014,10,19,02,11,15.20
2014,10,19,02,12,15.20
2014,10,19,02,13,15.20
2014,10,19,02,14,15.20
2014,10,19,02,15,15.20
2014,10,19,02,16,15.20
2014,10,19,02,17,15.20
2014,10,19,02,18,15.20
2014,10,19,02,19,15.20
2014,10,19,02,20,15.30
2014,10,19,02,21,15.30
2014,10,19,02,22,15.30
2014,10,19,02,23,15.30
2014,10,19,02,24,15.30
2014,10,19,02,25,15.30
2014,10,19,02,26,15.30
2014,10,19,02,27,15.30
2014,10,19,02,28,15.30
2014,10,19,02,29,15.30
2014,10,19,02,30,15.30
2014,10,19,02,31,15.30
2014,10,19,02,32,15.30
2014,10,19,02,33,15.40
2014,10,19,02,34,15.30
2014,10,19,02,35,15.30
2014,10,19,02,36,15.40
2014,10,19,02,37,15.40
2014,10,19,02,38,15.40
2014,10,19,02,39,15.40
2014,10,19,02,40,15.40
2014,10,19,02,41,15.40
2014,10,19,02,42,15.40
2014,10,19,02,43,15.40
2014,10,19,02,44,15.40
2014,10,19,02,45,15.40
2014,10,19,02,46,15.40
2014,10,19,02,47,15.40
2014,10,19,02,48,15.40
2014,10,19,02,49,15.40
2014,10,19,02,50,15.40
2014,10,19,02,51,15.40
2014,10,19,02,52,15.40
2014,10,19,02,53,15.40
2014,10,19,02,54,15.40
2014,10,19,02,55,15.40
2014,10,19,02,56,15.40
2014,10,19,02,57,15.40
2014,10,19,02,58,15.40
2014,10,19,02,59,15.40
2014,10,19,03,00,15.40
2014,10,19,03,01,15.40
2014,10,19,03,02,15.50
2014,10,19,03,03,15.50
2014,10,19,03,04,15.50
2014,10,19,03,05,15.50
2014,10,19,03,06,15.40
2014,10,19,03,07,15.40
2014,10,19,03,08,15.40
2014,10,19,03,09,15.40
2014,10,19,03,10,15.40
2014,10,19,03,11,15.40
2014,10,19,03,12,15.40
2014,10,19,03,13,15.40
2014,10,19,03,14,15.30
2014,10,19,03,15,15.30
2014,10,19,03,16,15.30
2014,10,19,03,17,15.30
2014,10,19,03,18,15.30
2014,10,19,03,19,15.30
2014,10,19,03,20,15.30
2014,10,19,03,21,15.30
2014,10,19,03,22,15.30
2014,10,19,03,23,15.30
2014,10,19,03,24,15.30
2014,10,19,03,25,15.30
2014,10,19,03,26,15.30
2014,10,19,03,27,15.30
2014,10,19,03,28,15.30
2014,10,19,03,29,15.30
2014,10,19,03,30,15.30
2014,10,19,03,31,15.30
2014,10,19,03,32,15.30
2014,10,19,03,33,15.30
2014,10,19,03,34,15.30
2014,10,19,03,35,15.30
2014,10,19,03,36,15.30
2014,10,19,03,37,15.30
2014,10,19,03,38,15.30
2014,10,19,03,39,15.30
2014,10,19,03,40,15.30
2014,10,19,03,41,15.30
2014,10,19,03,42,15.30
2014,10,19,03,43,15.30
2014,10,19,03,44,15.30
2014,10,19,03,45,15.30
2014,10,19,03,46,15.30
2014,10,19,03,47,15.30
2014,10,19,03,48,15.30
2014,10,19,03,49,15.30
2014,10,19,03,50,15.30
2014,10,19,03,51,15.30
2014,10,19,03,52,15.30
2014,10,19,03,53,15.20
2014,10,19,03,54,15.20
2014,10,19,03,55,15.20
2014,10,19,03,56,15.20
2014,10,19,03,57,15.20
2014,10,19,03,58,15.20
2014,10,19,03,59,15.20
2014,10,19,04,00,15.20
2014,10,19,04,01,15.20
2014,10,19,04,02,15.20
2014,10,19,04,03,15.20
2014,10,19,04,04,15.20
2014,10,19,04,05,15.20
2014,10,19,04,06,15.20
2014,10,19,04,07,15.20
2014,10,19,04,08,15.20
2014,10,19,04,09,15.20
2014,10,19,04,10,15.20
2014,10,19,04,11,15.20
2014,10,19,04,12,15.20
2014,10,19,04,13,15.30
2014,10,19,04,14,15.30
2014,10,19,04,15,15.30
2014,10,19,04,16,15.30
2014,10,19,04,17,15.30
2014,10,19,04,18,15.30
2014,10,19,04,19,15.30
2014,10,19,04,20,15.20
2014,10,19,04,21,15.20
2014,10,19,04,22,15.20
2014,10,19,04,23,15.20
2014,10,19,04,24,15.20
2014,10,19,04,25,15.20
2014,10,19,04,26,15.20
2014,10,19,04,27,15.20
2014,10,19,04,28,15.20
2014,10,19,04,29,15.20
2014,10,19,04,30,15.20
2014,10,19,04,31,15.20
2014,10,19,04,32,15.20
2014,10,19,04,33,15.20
2014,10,19,04,34,15.20
2014,10,19,04,35,15.20
2014,10,19,04,36,15.20
2014,10,19,04,37,15.20
2014,10,19,04,38,15.20
2014,10,19,04,39,15.20
2014,10,19,04,40,15.30
2014,10,19,04,41,15.30
2014,10,19,04,42,15.30
2014,10,19,04,43,15.30
2014,10,19,04,44,15.30
2014,10,19,04,45,15.30
2014,10,19,04,46,15.30
2014,10,19,04,47,15.40
2014,10,19,04,48,15.40
2014,10,19,04,49,15.40
2014,10,19,04,50,15.40
2014,10,19,04,51,15.50
2014,10,19,04,52,15.60
2014,10,19,04,53,15.60
2014,10,19,04,54,15.60
2014,10,19,04,55,15.60
2014,10,19,04,56,15.60
2014,10,19,04,57,15.70
2014,10,19,04,58,15.70
2014,10,19,04,59,15.70
2014,10,19,05,00,15.80
2014,10,19,05,01,15.80
2014,10,19,05,02,15.80
2014,10,19,05,03,15.80
2014,10,19,05,04,15.90
2014,10,19,05,05,15.90
2014,10,19,05,06,15.90
2014,10,19,05,07,15.90
2014,10,19,05,08,15.80
2014,10,19,05,09,15.80
2014,10,19,05,10,15.80
2014,10,19,05,11,15.80
2014,10,19,05,12,15.70
2014,10,19,05,13,15.70
2014,10,19,05,14,15.70
2014,10,19,05,15,15.70
2014,10,19,05,16,15.70
2014,10,19,05,17,15.70
2014,10,19,05,18,15.70
2014,10,19,05,19,15.70
2014,10,19,05,20,15.60
2014,10,19,05,21,15.60
2014,10,19,05,22,15.60
2014,10,19,05,23,15.60
2014,10,19,05,24,15.60
2014,10,19,05,25,15.60
2014,10,19,05,26,15.60
2014,10,19,05,27,15.60
2014,10,19,05,28,15.60
2014,10,19,05,29,15.50
2014,10,19,05,30,15.60
2014,10,19,05,31,15.50
2014,10,19,05,32,15.50
2014,10,19,05,33,15.50
2014,10,19,05,34,15.50
2014,10,19,05,35,15.40
2014,10,19,05,36,15.40
2014,10,19,05,37,15.40
2014,10,19,05,38,15.40
2014,10,19,05,39,15.40
2014,10,19,05,40,15.40
2014,10,19,05,41,15.40
2014,10,19,05,42,15.40
2014,10,19,05,43,15.40
2014,10,19,05,44,15.40
2014,10,19,05,45,15.40
2014,10,19,05,46,15.40
2014,10,19,05,47,15.40
2014,10,19,05,48,15.40
2014,10,19,05,49,15.40
2014,10,19,08,38,14.30
2014,10,19,08,39,14.30
2014,10,19,08,40,14.30
2014,10,19,08,41,14.30
2014,10,19,08,42,14.30
2014,10,19,08,43,14.30
2014,10,19,08,44,14.30
2014,10,19,08,45,14.30
2014,10,19,08,46,14.30
2014,10,19,08,47,14.30
2014,10,19,08,48,14.30
2014,10,19,08,49,14.30
2014,10,19,08,50,14.30
2014,10,19,08,51,14.30
2014,10,19,08,52,14.30
2014,10,19,08,53,14.30
2014,10,19,08,54,14.30
2014,10,19,08,55,14.30
2014,10,19,08,56,14.30
2014,10,19,08,57,14.30
2014,10,19,08,58,14.30
2014,10,19,08,59,14.30
2014,10,19,09,00,14.30
2014,10,19,09,01,14.40
2014,10,19,09,02,14.40
2014,10,19,09,03,14.40
2014,10,19,09,04,14.40
2014,10,19,09,05,14.40
2014,10,19,09,06,14.50
2014,10,19,09,07,14.50
2014,10,19,09,08,14.50
2014,10,19,09,09,14.50
2014,10,19,09,10,14.60
2014,10,19,09,11,14.60
2014,10,19,09,12,14.60
2014,10,19,09,13,14.60
2014,10,19,09,14,14.70
2014,10,19,09,15,14.70
2014,10,19,09,16,14.70
2014,10,19,09,17,14.70
2014,10,19,09,18,14.80
2014,10,19,09,19,14.80
2014,10,19,09,20,14.80
2014,10,19,09,21,14.80
2014,10,19,09,22,14.80
2014,10,19,09,23,14.80
2014,10,19,09,24,14.90
2014,10,19,09,25,14.90
2014,10,19,09,26,14.90
2014,10,19,09,27,14.90
2014,10,19,09,28,14.90
2014,10,19,09,29,14.90
2014,10,19,09,30,14.90
2014,10,19,09,31,15.00
2014,10,19,09,32,15.00
2014,10,19,09,33,15.00
2014,10,19,09,34,15.00
2014,10,19,09,35,15.00
2014,10,19,09,36,15.00
2014,10,19,09,37,15.10
2014,10,19,09,38,15.10
2014,10,19,09,39,15.10
2014,10,19,09,40,15.10
2014,10,19,09,41,15.20
2014,10,19,09,42,15.20
2014,10,19,09,43,15.20
2014,10,19,09,44,15.20
2014,10,19,09,45,15.20
2014,10,19,09,46,15.30
2014,10,19,09,47,15.30
2014,10,19,09,48,15.30
2014,10,19,09,49,15.30
2014,10,19,09,50,15.30
2014,10,19,09,51,15.30
2014,10,19,09,52,15.30
2014,10,19,09,53,15.30
2014,10,19,09,54,15.30
2014,10,19,09,55,15.30
2014,10,19,09,56,15.40
2014,10,19,09,57,15.40
2014,10,19,09,58,15.40
2014,10,19,09,59,15.40
2014,10,19,10,00,15.40
2014,10,19,10,01,15.40
2014,10,19,10,02,15.40
2014,10,19,10,03,15.40
2014,10,19,10,04,15.40
2014,10,19,10,05,15.40
2014,10,19,10,06,15.40
2014,10,19,10,07,15.40
2014,10,19,10,08,15.40
2014,10,19,10,09,15.40
2014,10,19,10,10,15.40
2014,10,19,10,11,15.40
2014,10,19,10,12,15.50
2014,10,19,10,13,15.50
2014,10,19,10,14,15.50
2014,10,19,10,15,15.50
2014,10,19,10,16,15.60
2014,10,19,10,17,15.60
2014,10,19,10,18,15.60
2014,10,19,10,19,15.60
2014,10,19,10,20,15.60
2014,10,19,10,21,15.60
2014,10,19,10,22,15.60
2014,10,19,10,23,15.70
2014,10,19,10,24,15.70
2014,10,19,10,25,15.70
2014,10,19,10,26,15.70
2014,10,19,10,27,15.70
2014,10,19,10,28,15.80
2014,10,19,10,29,15.80
2014,10,19,10,30,15.80
2014,10,19,10,31,15.80
2014,10,19,10,32,15.80
2014,10,19,10,33,15.80
2014,10,19,10,34,15.80
2014,10,19,10,35,15.80
2014,10,19,10,36,15.80
2014,10,19,10,37,15.80
2014,10,19,10,38,15.80
2014,10,19,10,39,15.80
2014,10,19,10,40,15.90
2014,10,19,10,41,15.90
2014,10,19,10,42,15.90
2014,10,19,10,43,15.90
2014,10,19,10,44,15.90
2014,10,19,10,45,15.90
2014,10,19,10,46,15.90
2014,10,19,10,47,15.90
2014,10,19,10,48,15.90
2014,10,19,10,49,15.90
2014,10,19,10,50,15.90
2014,10,19,10,51,15.90
2014,10,19,10,52,15.90
2014,10,19,10,53,15.90
2014,10,19,10,54,15.90
2014,10,19,10,55,15.90
2014,10,19,10,56,15.90
2014,10,19,10,57,15.90
2014,10,19,10,58,15.90
2014,10,19,10,59,15.90
2014,10,19,11,00,15.90
2014,10,19,11,01,15.90
2014,10,19,11,02,15.90
2014,10,19,11,03,15.90
2014,10,19,11,04,15.90
2014,10,19,11,05,15.90
2014,10,19,11,06,15.90
2014,10,19,11,07,15.90
2014,10,19,11,08,15.90
2014,10,19,11,09,15.90
2014,10,19,11,10,15.90
2014,10,19,11,11,15.90
2014,10,19,11,12,16.00
2014,10,19,11,13,16.00
2014,10,19,11,14,16.00
2014,10,19,11,15,16.00
2014,10,19,11,16,16.00
2014,10,19,11,17,16.00
2014,10,19,11,18,16.00
2014,10,19,11,19,16.00
2014,10,19,11,20,16.00
2014,10,19,11,21,16.00
2014,10,19,11,22,16.00
2014,10,19,11,23,16.00
2014,10,19,11,24,16.00
2014,10,19,11,25,16.00
2014,10,19,11,26,16.00
2014,10,19,11,27,16.00
2014,10,19,11,28,16.00
2014,10,19,11,29,16.00
2014,10,19,11,30,16.00
2014,10,19,11,31,16.00
2014,10,19,11,32,16.00
2014,10,19,11,33,16.00
2014,10,19,11,34,15.90
2014,10,19,11,35,15.90
2014,10,19,11,36,15.90
2014,10,19,11,37,15.90
2014,10,19,11,38,15.80
2014,10,19,11,39,15.80
2014,10,19,11,40,15.80
2014,10,19,11,41,15.80
2014,10,19,11,42,15.80
2014,10,19,11,43,15.80
2014,10,19,11,44,15.80
2014,10,19,11,45,15.80
2014,10,19,11,46,15.70
2014,10,19,11,47,15.70
2014,10,19,11,48,15.70
2014,10,19,11,49,15.70
2014,10,19,11,50,15.70
2014,10,19,11,51,15.70
2014,10,19,11,52,15.70
2014,10,19,11,53,15.70
2014,10,19,11,54,15.70
2014,10,19,11,55,15.70
2014,10,19,11,56,15.70
2014,10,19,11,57,15.70
2014,10,19,11,58,15.70
2014,10,19,11,59,15.70
2014,10,19,12,00,15.80
2014,10,19,12,01,15.80
2014,10,19,12,02,15.80
2014,10,19,12,03,15.80
2014,10,19,12,04,15.80
2014,10,19,12,05,15.80
2014,10,19,12,06,15.80
2014,10,19,12,07,15.80
2014,10,19,12,08,15.90
2014,10,19,12,09,15.90
2014,10,19,12,10,15.90
2014,10,19,12,11,15.90
2014,10,19,12,12,15.90
2014,10,19,12,13,15.90
2014,10,19,12,14,16.00
2014,10,19,12,15,16.00
2014,10,19,12,16,16.00
2014,10,19,12,17,16.00
2014,10,19,12,18,16.10
2014,10,19,12,19,16.10
2014,10,19,12,20,16.10
2014,10,19,12,21,16.10
2014,10,19,12,22,16.10
2014,10,19,12,23,16.10
2014,10,19,12,24,16.10
2014,10,19,12,25,16.10
2014,10,19,12,26,16.20
2014,10,19,12,27,16.10
2014,10,19,12,28,16.20
2014,10,19,12,29,16.20
2014,10,19,12,30,16.20
2014,10,19,12,31,16.20
2014,10,19,12,32,16.20
2014,10,19,12,33,16.30
2014,10,19,12,34,16.40
2014,10,19,12,35,16.40
2014,10,19,12,36,16.40
2014,10,19,12,37,16.40
2014,10,19,12,38,16.50
2014,10,19,12,39,16.50
2014,10,19,12,40,16.60
2014,10,19,12,41,16.60
2014,10,19,12,42,16.70
2014,10,19,12,43,16.70
2014,10,19,12,44,16.80
2014,10,19,12,45,16.80
2014,10,19,12,46,16.80
2014,10,19,12,47,16.90
2014,10,19,12,48,16.90
2014,10,19,12,49,16.90
2014,10,19,12,50,17.00
2014,10,19,12,51,17.00
2014,10,19,12,52,17.10
2014,10,19,12,53,17.10
2014,10,19,12,54,17.10
2014,10,19,12,55,17.10
2014,10,19,12,56,17.10
2014,10,19,12,57,17.10
2014,10,19,12,58,17.10
2014,10,19,12,59,17.10
2014,10,19,13,00,17.10
2014,10,19,13,01,17.20
2014,10,19,13,02,17.20
2014,10,19,13,03,17.20
2014,10,19,13,04,17.20
2014,10,19,13,05,17.20
2014,10,19,13,06,17.20
2014,10,19,13,07,17.20
2014,10,19,13,08,17.20
2014,10,19,13,09,17.20
2014,10,19,13,10,17.20
2014,10,19,13,11,17.20
2014,10,19,13,12,17.10
2014,10,19,13,13,17.10
2014,10,19,13,14,17.10
2014,10,19,13,15,17.20
2014,10,19,13,16,17.20
2014,10,19,13,17,17.20
2014,10,19,13,18,17.20
2014,10,19,13,19,17.20
2014,10,19,13,20,17.20
2014,10,19,13,21,17.20
2014,10,19,13,22,17.20
2014,10,19,13,23,17.10
2014,10,19,13,24,17.10
2014,10,19,13,25,17.10
2014,10,19,13,26,17.10
2014,10,19,13,27,17.00
2014,10,19,13,28,17.00
2014,10,19,13,29,17.00
2014,10,19,13,30,17.00
2014,10,19,13,31,17.00
2014,10,19,13,32,17.00
2014,10,19,13,33,17.00
2014,10,19,13,34,17.00
2014,10,19,13,35,17.00
2014,10,19,13,36,17.00
2014,10,19,13,37,17.00
2014,10,19,13,38,17.00
2014,10,19,13,39,17.00
2014,10,19,13,40,17.00
2014,10,19,13,41,17.00
2014,10,19,13,42,17.00
2014,10,19,13,43,17.10
2014,10,19,13,44,17.00
2014,10,19,13,45,17.00
2014,10,19,13,46,17.00
2014,10,19,13,47,17.00
2014,10,19,13,48,17.00
2014,10,19,13,49,17.00
2014,10,19,13,50,17.10
2014,10,19,13,51,17.10
2014,10,19,13,52,17.10
2014,10,19,13,53,17.10
2014,10,19,13,54,17.10
2014,10,19,13,55,17.10
2014,10,19,13,56,17.20
2014,10,19,13,57,17.20
2014,10,19,13,58,17.20
2014,10,19,13,59,17.20
2014,10,19,14,00,17.20
2014,10,19,14,01,17.20
2014,10,19,14,02,17.20
2014,10,19,14,03,17.30
2014,10,19,14,04,17.30
2014,10,19,14,05,17.30
2014,10,19,14,06,17.40
2014,10,19,14,07,17.40
2014,10,19,14,08,17.40
2014,10,19,14,09,17.50
2014,10,19,14,10,17.50
2014,10,19,14,11,17.60
2014,10,19,14,12,17.60
2014,10,19,14,13,17.60
2014,10,19,14,14,17.60
2014,10,19,14,15,17.70
2014,10,19,14,16,17.70
2014,10,19,14,17,17.80
2014,10,19,14,18,17.80
2014,10,19,14,19,17.90
2014,10,19,14,20,18.00
2014,10,19,14,21,18.10
2014,10,19,14,22,18.20
2014,10,19,14,23,18.20
2014,10,19,14,24,18.30
2014,10,19,14,25,18.40
2014,10,19,14,26,18.50
2014,10,19,14,27,18.60
2014,10,19,14,28,18.60
2014,10,19,14,29,18.70
2014,10,19,14,30,18.80
2014,10,19,14,31,18.80
2014,10,19,14,32,18.80
2014,10,19,14,33,18.90
2014,10,19,14,34,18.90
2014,10,19,14,35,18.90
2014,10,19,14,36,19.00
2014,10,19,14,37,19.00
2014,10,19,14,38,19.00
2014,10,19,14,39,19.00
2014,10,19,14,40,19.10
2014,10,19,14,41,19.10
2014,10,19,14,42,19.10
2014,10,19,14,43,19.10
2014,10,19,14,44,19.10
2014,10,19,14,45,19.10
2014,10,19,14,46,19.20
2014,10,19,14,47,19.20
2014,10,19,14,48,19.20
2014,10,19,14,49,19.20
2014,10,19,14,50,19.20
2014,10,19,14,51,19.20
2014,10,19,14,52,19.30
2014,10,19,14,53,19.30
2014,10,19,14,54,19.30
2014,10,19,14,55,19.30
2014,10,19,14,56,19.30
2014,10,19,14,57,19.30
2014,10,19,14,58,19.30
2014,10,19,14,59,19.40
2014,10,19,15,00,19.40
2014,10,19,15,01,19.50
2014,10,19,15,02,19.50
2014,10,19,15,03,19.60
2014,10,19,15,04,19.60
2014,10,19,15,05,19.70
2014,10,19,15,06,19.70
2014,10,19,15,07,19.80
2014,10,19,15,08,19.80
2014,10,19,15,09,19.80
2014,10,19,15,10,19.80
2014,10,19,15,11,19.90
2014,10,19,15,12,19.90
2014,10,19,15,13,19.90
2014,10,19,15,14,19.90
2014,10,19,15,15,19.90
2014,10,19,15,16,20.00
2014,10,19,15,17,20.00
2014,10,19,15,18,20.00
2014,10,19,15,19,20.00
2014,10,19,15,20,20.00
2014,10,19,15,21,20.10
2014,10,19,15,22,20.10
2014,10,19,15,23,20.10
2014,10,19,15,24,20.10
2014,10,19,15,25,20.10
2014,10,19,15,26,20.10
2014,10,19,15,27,20.10
2014,10,19,15,28,20.10
2014,10,19,15,29,20.10
2014,10,19,15,30,20.10
2014,10,19,15,31,20.10
2014,10,19,15,32,20.10
2014,10,19,15,33,20.10
2014,10,19,15,34,20.00
2014,10,19,15,35,20.00
2014,10,19,15,36,20.00
2014,10,19,15,37,19.90
2014,10,19,15,38,19.90
2014,10,19,15,39,19.80
2014,10,19,15,40,19.80
2014,10,19,15,41,19.70
2014,10,19,15,42,19.70
2014,10,19,15,43,19.60
2014,10,19,15,44,19.50
2014,10,19,15,45,19.50
2014,10,19,15,46,19.40
2014,10,19,15,47,19.30
2014,10,19,15,48,19.30
2014,10,19,15,49,19.20
2014,10,19,15,50,19.20
2014,10,19,15,51,19.10
2014,10,19,15,52,19.10
2014,10,19,15,53,19.00
2014,10,19,15,54,19.00
2014,10,19,15,55,19.00
2014,10,19,15,56,18.90
2014,10,19,15,57,18.80
2014,10,19,15,58,18.80
2014,10,19,15,59,18.80
2014,10,19,16,00,18.70
2014,10,19,16,01,18.70
2014,10,19,16,02,18.70
2014,10,19,16,03,18.60
2014,10,19,16,04,18.60
2014,10,19,16,05,18.60
2014,10,19,16,06,18.50
2014,10,19,16,07,18.50
2014,10,19,16,08,18.50
2014,10,19,16,09,18.40
2014,10,19,16,10,18.40
2014,10,19,16,11,18.40
2014,10,19,16,12,18.40
2014,10,19,16,13,18.40
2014,10,19,16,14,18.30
2014,10,19,16,15,18.30
2014,10,19,16,16,18.30
2014,10,19,16,17,18.30
2014,10,19,16,18,18.30
2014,10,19,16,19,18.30
2014,10,19,16,20,18.30
2014,10,19,16,21,18.30
2014,10,19,16,22,18.30
2014,10,19,16,23,18.30
2014,10,19,16,24,18.20
2014,10,19,16,25,18.20
2014,10,19,16,26,18.20
2014,10,19,16,27,18.20
2014,10,19,16,28,18.20
2014,10,19,16,29,18.20
2014,10,19,16,30,18.10
2014,10,19,16,31,18.10
2014,10,19,16,32,18.10
2014,10,19,16,33,18.10
2014,10,19,16,34,18.10
2014,10,19,16,35,18.10
2014,10,19,16,36,18.10
2014,10,19,16,37,18.10
2014,10,19,16,38,18.10
2014,10,19,16,39,18.10
2014,10,19,16,40,18.10
2014,10,19,16,41,18.10
2014,10,19,16,42,18.10
2014,10,19,16,43,18.10
2014,10,19,16,44,18.10
2014,10,19,16,45,18.10
2014,10,19,16,46,18.10
2014,10,19,16,47,18.10
2014,10,19,16,48,18.10
2014,10,19,16,49,18.10
2014,10,19,16,50,18.10
2014,10,19,16,51,18.10
2014,10,19,16,52,18.10
2014,10,19,16,53,18.10
2014,10,19,16,54,18.10
2014,10,19,16,55,18.10
2014,10,19,16,56,18.10
2014,10,19,16,57,18.10
2014,10,19,16,58,18.10
2014,10,19,16,59,18.00
2014,10,19,17,00,18.00
2014,10,19,17,01,18.00
2014,10,19,17,02,18.00
2014,10,19,17,03,18.00
2014,10,19,17,04,18.00
2014,10,19,17,05,18.00
2014,10,19,17,06,17.90
2014,10,19,17,07,17.90
2014,10,19,17,08,17.90
2014,10,19,17,09,17.90
2014,10,19,17,10,17.90
2014,10,19,17,11,17.90
2014,10,19,17,12,17.90
2014,10,19,17,13,17.90
2014,10,19,17,14,17.90
2014,10,19,17,15,17.90
2014,10,19,17,16,17.90
2014,10,19,17,17,17.80
2014,10,19,17,18,17.80
2014,10,19,17,19,17.80
2014,10,19,17,20,17.80
2014,10,19,17,21,17.80
2014,10,19,17,22,17.80
2014,10,19,17,23,17.80
2014,10,19,17,24,17.80
2014,10,19,17,25,17.80
2014,10,19,17,26,17.80
2014,10,19,17,27,17.80
2014,10,19,17,28,17.80
2014,10,19,17,29,17.80
2014,10,19,17,30,17.80
2014,10,19,17,31,17.80
2014,10,19,17,32,17.80
2014,10,19,17,33,17.80
2014,10,19,17,34,17.90
2014,10,19,17,35,17.90
2014,10,19,17,36,17.90
2014,10,19,17,37,17.90
2014,10,19,17,38,17.90
2014,10,19,17,39,17.90
2014,10,19,17,40,17.90
2014,10,19,17,41,17.90
2014,10,19,17,42,17.90
2014,10,19,17,43,17.90
2014,10,19,17,44,17.90
2014,10,19,17,45,17.90
2014,10,19,17,46,17.90
2014,10,19,17,47,17.90
2014,10,19,17,48,17.90
2014,10,19,17,49,17.90
2014,10,19,17,50,17.90
2014,10,19,17,51,17.90
2014,10,19,17,52,17.90
2014,10,19,17,53,17.90
2014,10,19,17,54,17.90
2014,10,19,17,55,17.90
2014,10,19,17,56,17.90
2014,10,19,17,57,17.80
2014,10,19,17,58,17.80
2014,10,19,17,59,17.80
2014,10,19,18,00,17.80
2014,10,19,18,01,17.80
2014,10,19,18,02,17.80
2014,10,19,18,03,17.80
2014,10,19,18,04,17.80
2014,10,19,18,05,17.70
2014,10,19,18,06,17.70
2014,10,19,18,07,17.70
2014,10,19,18,08,17.70
2014,10,19,18,09,17.70
2014,10,19,18,10,17.70
2014,10,19,18,11,17.60
2014,10,19,18,12,17.60
2014,10,19,18,13,17.60
2014,10,19,18,14,17.60
2014,10,19,18,15,17.60
2014,10,19,18,16,17.50
2014,10,19,18,17,17.50
2014,10,19,18,18,17.40
2014,10,19,18,19,17.40
2014,10,19,18,20,17.40
2014,10,19,18,21,17.30
2014,10,19,18,22,17.30
2014,10,19,18,23,17.20
2014,10,19,18,24,17.20
2014,10,19,18,25,17.10
2014,10,19,18,26,17.10
2014,10,19,18,27,17.00
2014,10,19,18,28,16.90
2014,10,19,18,29,16.90
2014,10,19,18,30,16.80
2014,10,19,18,31,16.70
2014,10,19,18,32,16.60
2014,10,19,18,33,16.50
2014,10,19,18,34,16.50
2014,10,19,18,35,16.40
2014,10,19,18,36,16.30
2014,10,19,18,37,16.30
2014,10,19,18,38,16.30
2014,10,19,18,39,16.20
2014,10,19,18,40,16.20
2014,10,19,18,41,16.10
2014,10,19,18,42,16.10
2014,10,19,18,43,16.00
2014,10,19,18,44,15.90
2014,10,19,18,45,15.90
2014,10,19,18,46,15.80
2014,10,19,18,47,15.80
2014,10,19,18,48,15.80
2014,10,19,18,49,15.70
2014,10,19,18,50,15.70
2014,10,19,18,51,15.70
2014,10,19,18,52,15.60
2014,10,19,18,53,15.60
2014,10,19,18,54,15.60
2014,10,19,18,55,15.50
2014,10,19,18,56,15.50
2014,10,19,18,57,15.40
2014,10,19,18,58,15.40
2014,10,19,18,59,15.40
2014,10,19,19,00,15.30
2014,10,19,19,01,15.30
2014,10,19,19,02,15.30
2014,10,19,19,03,15.20
2014,10,19,19,04,15.20
2014,10,19,19,05,15.20
2014,10,19,19,06,15.20
2014,10,19,19,07,15.10
2014,10,19,19,08,15.10
2014,10,19,19,09,15.10
2014,10,19,19,10,15.10
2014,10,19,19,11,15.10
2014,10,19,19,12,15.10
2014,10,19,19,13,15.00
2014,10,19,19,14,15.00
2014,10,19,19,15,15.00
2014,10,19,19,16,15.00
2014,10,19,19,17,15.00
2014,10,19,19,18,15.00
2014,10,19,19,19,15.00
2014,10,19,19,20,14.90
2014,10,19,19,21,14.90
2014,10,19,19,22,14.90
2014,10,19,19,23,14.90
2014,10,19,19,24,14.90
2014,10,19,19,25,14.90
2014,10,19,19,26,14.80
2014,10,19,19,27,14.80
2014,10,19,19,28,14.80
2014,10,19,19,29,14.80
2014,10,19,19,30,14.80
2014,10,19,19,31,14.80
2014,10,19,19,32,14.70
2014,10,19,19,33,14.70
2014,10,19,19,34,14.70
2014,10,19,19,35,14.70
2014,10,19,19,36,14.70
2014,10,19,19,37,14.70
2014,10,19,19,38,14.70
2014,10,19,19,39,14.60
2014,10,19,19,40,14.60
2014,10,19,19,41,14.60
2014,10,19,19,42,14.60
2014,10,19,19,43,14.60
2014,10,19,19,44,14.60
2014,10,19,19,45,14.60
2014,10,19,19,46,14.60
2014,10,19,19,47,14.60
2014,10,19,19,48,14.60
2014,10,19,19,49,14.60
2014,10,19,19,50,14.60
2014,10,19,19,51,14.50
2014,10,19,19,52,14.50
2014,10,19,19,53,14.50
2014,10,19,19,54,14.50
2014,10,19,19,55,14.50
2014,10,19,19,56,14.50
2014,10,19,19,57,14.50
2014,10,19,19,58,14.50
2014,10,19,19,59,14.50
2014,10,19,20,00,14.40
2014,10,19,20,01,14.40
2014,10,19,20,02,14.40
2014,10,19,20,03,14.40
2014,10,19,20,04,14.40
2014,10,19,20,05,14.40
2014,10,19,20,06,14.40
2014,10,19,20,07,14.40